This is the latest recevied weather packets stored in our database for station/object RV1CJ-14. If no packets are shown the sender has not sent any weather packets the latest 10 day(s).
| Time | Temp. | Humidity | Pressure | Rain* | Wind** | Luminosity | Snow |
|---|---|---|---|---|---|---|---|
| 1777228804 | 1.11° C | 91% | 996.2 hPa | 0 mm | - | 0 W/m² | - |
| 1777228204 | 1.11° C | 91% | 996.2 hPa | 0 mm | - | 0 W/m² | - |
| 1777227604 | 1.11° C | 92% | 996.1 hPa | 0 mm | - | 0 W/m² | - |
| 1777227009 | 1.11° C | 92% | 996 hPa | 0 mm | - | 0 W/m² | - |
| 1777226404 | 1.11° C | 92% | 995.9 hPa | 0 mm | - | 0 W/m² | - |
| 1777225804 | 1.11° C | 92% | 995.8 hPa | 0 mm | - | 0 W/m² | - |
| 1777225203 | 1.11° C | 91% | 995.5 hPa | 0 mm | - | 0 W/m² | - |
| 1777224604 | 1.11° C | 92% | 995.5 hPa | 0 mm | - | 0 W/m² | - |
| 1777224003 | 1.11° C | 92% | 995.4 hPa | 0 mm | - | 0 W/m² | - |
| 1777223407 | 1.11° C | 92% | 995.3 hPa | 0 mm | - | 0 W/m² | - |
| 1777222805 | 1.11° C | 92% | 995.1 hPa | 0 mm | - | 0 W/m² | - |
| 1777222203 | 1.11° C | 92% | 995 hPa | 0 mm | - | 5 W/m² | - |
| 1777221604 | 1.11° C | 92% | 994.8 hPa | 0 mm | - | 5 W/m² | - |
| 1777221004 | 1.11° C | 92% | 994.7 hPa | 0 mm | - | 5 W/m² | - |
| 1777220403 | 1.11° C | 92% | 994.5 hPa | 0 mm | - | 5 W/m² | - |
| 1777219804 | 1.11° C | 92% | 994.5 hPa | 0 mm | - | 0 W/m² | - |
| 1777219208 | 1.11° C | 92% | 994.1 hPa | 0 mm | - | 5 W/m² | - |
| 1777218604 | 1.11° C | 92% | 994.1 hPa | 0 mm | - | 9 W/m² | - |
| 1777218005 | 1.11° C | 92% | 993.9 hPa | 0 mm | - | 5 W/m² | - |
| 1777217403 | 1.11° C | 92% | 993.7 hPa | 0 mm | - | 7 W/m² | - |
| 1777216804 | 1.11° C | 92% | 993.6 hPa | 0 mm | - | 12 W/m² | - |
| 1777216205 | 1.11° C | 92% | 993.5 hPa | 0 mm | - | 16 W/m² | - |
| 1777215606 | 1.11° C | 92% | 993.2 hPa | 0 mm | - | 16 W/m² | - |
| 1777215004 | 1.11° C | 92% | 993 hPa | 0 mm | - | 18 W/m² | - |
| 1777214404 | 1.11° C | 92% | 992.8 hPa | 0 mm | - | 23 W/m² | - |
* Rain latest hour (hover to see other rain measurements)
** Current wind speed in m/s (hover to see current wind gust speed)